Location: Bli��� Lhota
(48.7570°N, 14.0120°E)
Time: 05:56:39
(UTC+00:00)

SJ-11-01 - Pass Details

Date: 18 September 2020
Orbit: 684 x 701 km, 98.0° (Epoch: 22 October)

Event Time Altitude Azimuth Distance (km) Brightness Sun altitude
Rises 18:03:22 0° 167° (SSE) 3,067 7.4 -9.6°
Reaches altitude 10° 18:05:37 10° 169° (S) 2,152 6.6 -9.9°
Maximum altitude 18:10:20 80° 256° (WSW) 711 4.4 -10.7°
Drops below altitude 10° 18:15:04 10° 344° (NNW) 2,158 7.3 -11.5°
Sets 18:17:20 0° 346° (NNW) 3,076 8.1 -11.8°
